FW0554 Weather Reports


time (UTC)temp
C
wind
direction
speed
KPH
gust
KPH
rain 1hr
cm
rain 24hr
cm
rain mn
cm
humidity
%
barometer
mb
20260503050602 7 314 0.0 1.6 0.00 0.28 0.00 93 1002.1
20260503045602 7 314 0.0 3.2 0.00 0.28 0.00 92 1002.3
20260503044601 7 314 0.0 9.7 0.00 0.28 0.00 93 1002.4
20260503043601 8 323 0.0 3.2 0.00 0.28 0.00 93 1002.3
20260503042602 8 322 0.0 4.8 0.00 0.28 0.00 93 1002.3
20260503041601 8 189 0.0 0.0 0.00 0.28 0.00 93 1002.2
20260503040602 8 189 0.0 0.0 0.00 0.28 0.00 92 1002.0
20260503035600 8 189 0.0 0.0 0.00 0.28 0.28 92 1001.9
20260503034601 8 189 0.0 0.0 0.00 0.28 0.28 92 1001.9
20260503033602 8 189 0.0 0.0 0.00 0.28 0.28 92 1001.9
20260503032602 8 189 0.0 0.0 0.00 0.28 0.28 92 1001.8
20260503032043 8 189 0.0 0.0 0.00 0.28 0.28 92 1001.7
20260503031043 8 189 0.0 0.0 0.00 0.28 0.28 92 1001.5
20260503025602 9 189 0.0 0.0 0.00 0.28 0.28 91 1001.5
20260503024601 9 189 0.0 0.0 0.00 0.28 0.28 91 1001.4
20260503023601 9 189 0.0 0.0 0.00 0.28 0.28 91 1001.3
20260503022600 10 189 0.0 0.0 0.00 0.28 0.28 91 1001.3
20260503021603 10 189 0.0 0.0 0.00 0.28 0.28 91 1001.2
20260503021537 10 189 0.0 0.0 0.00 0.28 0.28 91 1001.3
20260503015559 10 189 0.0 0.0 0.00 0.28 0.28 90 1001.1
20260503014559 10 189 0.0 0.0 0.00 0.28 0.28 90 1001.3
20260503013557 10 189 0.0 0.0 0.00 0.28 0.28 90 1001.2
20260503012557 10 189 0.0 0.0 0.00 0.28 0.28 89 1001.0
20260503011554 10 189 0.0 0.0 0.00 0.28 0.28 88 1001.0
20260503011040 11 189 0.0 0.0 0.00 0.28 0.28 88 1000.8
20260503005554 11 189 0.0 0.0 0.00 0.28 0.28 87 1000.7
20260503004553 11 189 0.0 0.0 0.00 0.28 0.28 86 1000.6
20260503004040 12 189 0.0 0.0 0.00 0.28 0.28 86 1000.3
20260503002549 12 189 0.0 0.0 0.00 0.28 0.28 85 1000.2
20260503002029 12 189 0.0 0.0 0.00 0.28 0.28 85 1000.2
20260503000544 12 189 0.0 0.0 0.00 0.28 0.28 84 999.9
20260502235544 13 189 0.0 0.0 0.00 0.28 0.28 83 999.9
20260502234544 13 189 0.0 0.0 0.00 0.28 0.28 83 999.7
20260502233545 13 189 0.0 0.0 0.00 0.28 0.28 83 999.4
20260502232541 13 189 0.0 0.0 0.00 0.28 0.28 82 999.4
20260502232021 13 189 0.0 0.0 0.00 0.28 0.28 82 999.4
20260502230539 13 189 0.0 0.0 0.00 0.28 0.28 82 999.4
20260502225539 13 189 0.0 0.0 0.00 0.28 0.28 82 999.3
20260502224536 13 189 0.0 0.0 0.00 0.28 0.28 82 999.2
20260502223537 13 189 0.0 0.0 0.00 0.28 0.28 81 999.3
20260502222534 13 189 0.0 1.6 0.00 0.28 0.28 81 999.2
20260502221536 13 189 0.0 0.0 0.00 0.28 0.28 80 999.1
20260502221015 13 189 1.6 4.8 0.00 0.28 0.28 79 999.2
20260502220022 13 144 1.6 4.8 0.00 0.28 0.28 77 999.0
20260502214531 13 82 1.6 4.8 0.00 0.28 0.28 77 999.0
20260502213530 13 76 3.2 6.4 0.00 0.28 0.28 76 998.9
20260502212530 13 84 0.0 4.8 0.00 0.28 0.28 76 998.9
20260502212017 13 83 1.6 6.4 0.00 0.28 0.28 75 999.1
20260502210531 14 83 3.2 6.4 0.00 0.28 0.28 75 998.9
20260502205529 14 101 1.6 6.4 0.00 0.28 0.28 75 998.9
20260502204529 14 123 1.6 4.8 0.00 0.28 0.28 74 999.0
20260502203529 14 122 3.2 9.7 0.00 0.28 0.28 74 999.0
20260502203024 14 31 1.6 6.4 0.00 0.28 0.28 74 999.0
20260502201529 14 49 3.2 8.0 0.00 0.28 0.28 73 999.0
20260502200529 14 26 1.6 6.4 0.00 0.28 0.28 73 999.0
20260502195529 14 26 3.2 11.3 0.00 0.28 0.28 74 998.9
20260502194530 14 91 3.2 11.3 0.00 0.28 0.28 75 999.1
20260502194001 14 67 4.8 12.9 0.00 0.28 0.28 76 999.3
20260502192530 14 110 3.2 9.7 0.00 0.28 0.28 77 999.5
20260502191529 14 70 3.2 6.4 0.00 0.28 0.28 78 999.6
20260502190530 13 105 4.8 12.9 0.00 0.28 0.28 78 999.6
20260502185530 13 107 3.2 8.0 0.00 0.28 0.28 78 999.6
20260502184529 13 122 3.2 6.4 0.00 0.28 0.28 80 999.6
20260502183529 13 108 4.8 14.5 0.00 0.28 0.28 79 999.8
20260502182531 13 98 4.8 14.5 0.00 0.28 0.28 80 999.8
20260502181529 13 100 3.2 8.0 0.00 0.28 0.28 83 1000.0
20260502180529 12 108 4.8 11.3 0.00 0.28 0.28 84 1000.3
20260502163528 12 48 3.2 9.7 0.00 0.28 0.28 89 1000.9
20260502162526 12 62 3.2 8.0 0.00 0.28 0.28 89 1001.0
20260502161525 12 66 3.2 8.0 0.03 0.28 0.28 89 1001.1
20260502160523 12 118 1.6 11.3 0.03 0.28 0.28 89 1001.5
20260502151520 12 68 1.6 6.4 0.05 0.25 0.25 90 1000.8
20260502150517 12 29 1.6 4.8 0.05 0.25 0.25 90 1001.0
20260502130509 11 354 0.0 8.0 0.03 0.05 0.05 88 1000.2
20260502123506 11 358 0.0 4.8 0.03 0.03 0.03 88 1000.2
20260502122506 11 12 0.0 3.2 0.03 0.03 0.03 88 1000.2
20260502121504 11 14 0.0 0.0 0.03 0.03 0.03 87 999.8
20260502120949 11 14 0.0 3.2 0.03 0.03 0.03 87 999.8
20260502115501 11 321 0.0 1.6 0.03 0.03 0.03 87 999.9
20260502114501 11 346 0.0 4.8 0.03 0.03 0.03 87 999.9
20260502113501 11 342 0.0 8.0 0.00 0.00 0.00 87 1000.0
20260502112502 11 355 0.0 6.4 0.00 0.00 0.00 87 999.9
20260502111502 12 341 0.0 0.0 0.00 0.00 0.00 87 999.9
20260502110502 12 341 0.0 0.0 0.00 0.00 0.00 87 1000.3
20260502105501 12 341 0.0 4.8 0.00 0.00 0.00 87 1000.2
20260502104946 12 341 0.0 4.8 0.00 0.00 0.00 87 1000.1
20260502103502 12 343 0.0 0.0 0.00 0.00 0.00 87 1000.1
20260502102502 12 340 0.0 0.0 0.00 0.00 0.00 88 1000.3
20260502101501 12 342 0.0 0.0 0.00 0.00 0.00 88 1000.3
20260502100456 12 342 0.0 8.0 0.00 0.00 0.00 88 1000.3
20260502091453 12 263 0.0 0.0 0.00 0.00 0.00 88 1000.4
20260502090453 12 262 0.0 0.0 0.00 0.00 0.00 88 1000.2
20260502071431 12 253 0.0 0.0 0.00 0.00 0.00 89 999.3
20260502070430 12 253 0.0 0.0 0.00 0.00 0.00 89 999.3
20260502065911 12 253 0.0 0.0 0.00 0.00 0.00 89 999.3
20260502064431 12 253 0.0 0.0 0.00 0.00 0.00 88 999.4
20260502063429 12 253 0.0 0.0 0.00 0.00 0.00 88 999.5
20260502062429 12 253 0.0 0.0 0.00 0.00 0.00 88 999.5
20260502061918 12 253 0.0 0.0 0.00 0.00 0.00 88 999.7
20260502060910 12 253 0.0 0.0 0.00 0.00 0.00 87 999.7
20260502055426 12 253 0.0 0.0 0.00 0.00 0.00 87 999.6
20260502054427 12 253 0.0 0.0 0.00 0.00 0.00 87 999.6
20260502053426 12 253 0.0 0.0 0.00 0.00 0.00 87 999.9
20260502052426 12 253 0.0 0.0 0.00 0.00 0.00 87 1000.0
20260502051423 12 253 0.0 0.0 0.00 0.00 0.00 87 1000.1
20260502051053 12 253 0.0 0.0 0.00 0.00 0.00 86 1000.2
20260502050859 12 253 0.0 0.0 0.00 0.00 0.00 86 1000.3